Location: Chantarel
(45.1638°N, 1.7873°E)
Time: 16:55:27
(UTC+00:00)

ASTEX 1 - Pass Details

Date: 03 March 2021
Orbit: 720 x 743 km, 92.7° (Epoch: 10 April)

Event Time Altitude Azimuth Distance (km) Brightness Sun altitude
Rises 19:20:57 0° 11° (N) 3,147 6.7 -18.0°
Reaches altitude 10° 19:23:20 10° 17° (NNE) 2,220 5.8 -18.4°
Maximum altitude 19:28:03 46° 91° (E) 962 3.5 -19.2°
Enters shadow 19:30:12 28° 147° (SSE) 1,325 4.4 -19.6°
